Location: Alulod
(14.2076°N, 120.8898°E)
Time: 03:26:23
(UTC+00:00)

ARIANE 5 R/B - Pass Details

Date: 13 December 2025
Orbit: 537 x 17404 km, 6.8° (Epoch: 15 January)

Event Time Altitude Azimuth Distance (km) Brightness Sun altitude
Exits shadow 19:58:17 11° 181° (S) 1,980 4.3 -31.1°
Drops below altitude 10° 19:58:46 10° 173° (S) 2,005 4.4 -31.0°
Sets 20:01:38 0° 140° (SE) 2,667 5.6 -30.4°
